Location: ???????
(60.4260°N, 46.9069°E)
Time: 18:46:16
(UTC+00:00)

PSLV R/B - Pass Details

Date: 30 March 2020
Orbit: 568 x 598 km, 98.2° (Epoch: 05 June)

Event Time Altitude Azimuth Distance (km) Brightness Sun altitude
Rises 00:49:32 0° 158° (SSE) 2,841 7.4 -11.6°
Reaches altitude 10° 00:51:42 10° 158° (SSE) 1,943 6.5 -11.4°
Maximum altitude 00:55:55 84° 71° (ENE) 612 4.1 -10.9°
Drops below altitude 10° 01:00:10 10° 343° (NNW) 1,951 6.8 -10.4°
Sets 01:02:21 0° 343° (NNW) 2,855 7.6 -10.2°
